This demonstration page uses our WeatherBlox Daily Observations layout. Learn more.

Left ArrowRight Arrow

39.12711, -84.51439

Hourly Observations for July 2, 2021

Temp ( °F °C ) Dew Point ( °F °C ) Humidity (%) Winds ( mph kmh ) Pressure ( in mb ) Visibility ( mi km ) Precip ( " mm )
12:00 am 00:00 Clear with Mist and Fog 65 18.3 64 17.8 97 97 N N/A 29.91 1013 1 1 N/A
12:17 am 00:17 Mostly Cloudy with Mist and Fog 65 18.3 64 17.8 97 97 N N/A 29.91 1013 1 1 N/A
12:30 am 00:30 Mostly Cloudy with Fog 65 18.3 64 17.8 97 97 N N/A 29.90 1013 0 0 N/A
12:53 am 00:53 Mostly Cloudy with Fog 65 18.3 64 17.8 97 97 N N/A 29.91 1013 0 0 N/A
1:09 am 01:09 Mostly Cloudy with Mist and Fog 65 18.3 64 17.8 97 97 N N/A 29.90 1013 1 2 N/A
1:18 am 01:18 Mostly Cloudy with Mist and Fog 64 17.8 63 17.2 96 96 N N/A 29.90 1013 1 1 N/A
1:22 am 01:22 Partly Cloudy with Mist and Fog 64 17.8 63 17.2 96 96 N N/A 29.90 1013 1 2 N/A
1:32 am 01:32 Mostly Cloudy with Mist and Fog 64 17.8 63 17.2 96 96 N N/A 29.90 1013 1 1 N/A
1:44 am 01:44 Mostly Cloudy with Fog 65 18.3 63 17.2 93 93 N N/A 29.90 1013 1 1 N/A
1:47 am 01:47 Partly Cloudy with Mist and Fog 64 18 64 18 100 100 N N/A 29.90 1013 2 2 N/A
1:49 am 01:49 Mostly Clear with Mist and Fog 64 18 64 18 100 100 WNW 3 6 29.90 1013 4 6 N/A
1:53 am 01:53 Mostly Clear 65 18.3 64 17.8 97 97 WNW 3 6 29.91 1013 8 13 N/A
2:14 am 02:14 Clear with Mist and Fog 64 17.8 63 17.2 96 96 N N/A 29.91 1013 2 2 N/A
2:16 am 02:16 Mostly Cloudy with Mist and Fog 64 17.8 63 17.2 96 96 N N/A 29.91 1013 1 1 N/A
2:27 am 02:27 Clear with Mist and Fog 64 17.8 63 17.2 96 96 N N/A 29.91 1013 3 5 N/A
2:53 am 02:53 Clear 64 17.8 63 17.2 96 96 N N/A 29.91 1013 10 16 N/A
3:53 am 03:53 Clear 66 18.9 63 17.2 90 90 N 3 6 29.91 1013 10 16 N/A
4:53 am 04:53 Clear with Mist and Fog 63 17.2 62 16.7 97 97 N N/A 29.92 1013 4 6 N/A
5:53 am 05:53 Clear 62 16.7 60 15.6 93 93 NNE 5 7 29.94 1014 7 11 N/A
6:16 am 06:16 Mostly Cloudy 65 18.3 62 16.7 90 90 NNE 5 7 29.96 1015 10 16 N/A
6:53 am 06:53 Partly Cloudy 65 18.3 60 15.6 84 84 NE 8 13 29.97 1015 10 16 N/A
7:53 am 07:53 Partly Cloudy 65 18.3 59 15 81 81 NNE 7 11 29.98 1015 10 16 N/A
8:53 am 08:53 Sunny 67 19.4 58 14.4 73 73 NE 10 17 30.00 1016 10 16 N/A
9:53 am 09:53 Sunny 69 20.6 56 13.3 63 63 NE 8 13 30.00 1016 10 16 N/A
10:53 am 10:53 Mostly Sunny 73 22.8 58 14.4 59 59 N 7 11 29.99 1016 10 16 N/A
11:53 am 11:53 Mostly Sunny 74 23.3 57 13.9 56 56 N 9 15 30.00 1016 10 16 N/A
12:53 pm 12:53 Partly Cloudy 74 23.3 53 11.7 48 48 NNW 15 24 30.01 1016 10 16 N/A
1:53 pm 13:53 Partly Cloudy 76 24.4 55 12.8 48 48 N 10 17 29.99 1016 10 16 N/A
2:53 pm 14:53 Partly Cloudy 76 24.4 54 12.2 47 47 N 14 22 29.99 1016 10 16 N/A
3:53 pm 15:53 Mostly Cloudy 75 23.9 53 11.7 46 46 N 10 17 29.99 1016 10 16 N/A
4:53 pm 16:53 Mostly Cloudy 74 23.3 52 11.1 46 46 NNE 8 13 29.98 1015 10 16 N/A
5:53 pm 17:53 Partly Cloudy 74 23.3 53 11.7 48 48 NNE 12 19 29.97 1015 10 16 N/A
6:53 pm 18:53 Partly Cloudy 75 23.9 52 11.1 45 45 N 9 15 29.96 1015 10 16 N/A
7:53 pm 19:53 Mostly Sunny 74 23.3 51 10.6 45 45 N 12 19 29.96 1015 10 16 N/A
8:53 pm 20:53 Sunny 70 21.1 52 11.1 53 53 NNW 7 11 29.97 1015 10 16 N/A
9:53 pm 21:53 Clear 63 17.2 56 13.3 78 78 N N/A 29.97 1015 10 16 N/A
10:53 pm 22:53 Clear 61 16.1 56 13.3 84 84 N N/A 29.99 1016 10 16 N/A
11:53 pm 23:53 Clear 60 15.6 56 13.3 86 86 N N/A 29.98 1015 10 16 N/A

Powered by AerisWeather